Informationen zur Loipe auf der Atzenberger Höhe
 
20.01.2019Höhe
ü. NN
ZeitTemperatur (°C)Nieder-
schlag
Luft-
feuchte
Luft-
druck
Wind
StationaktuellMinimumMaximumaktuellMaximum
Aldingen654 m00:36-6,4-6,7 (05:59)-6,4 (14:43)0,0 l/m²93%1016,10,0 km/h (0 Bft) S-SW14,8 km/h (3 Bft) S-SO (13:07)
Allmannsweiler625 m00:35-10,1-10,1 (00:30)-9,8 (00:00)0,0 l/m²94%1015,40,0 km/h (0 Bft) SO0,0 km/h (0 Bft) SO (00:00)
Allmendingen541 m00:35-10,4-10,4 (00:35)-9,9 (01:00)0,0 l/m²90%1015,70,0 km/h (0 Bft) S-SW16,1 km/h (3 Bft) SO (09:05)
Altshausen574 m00:35-9,3-9,3 (00:21)-9,1 (00:00)0,0 l/m²88%1011,30,0 km/h (0 Bft) W-SW1,6 km/h (1 Bft) W-SW (00:28)
Amstetten-Reutti663 m00:35-10,9-10,9 (00:35)-10,3 (14:40)0,0 l/m²91%1015,20,0 km/h (0 Bft) S27,4 km/h (4 Bft) O (09:45)
Amtzell-Grenis677 m00:35-9,1-9,1 (00:35)-8,7 (00:20)0,0 l/m²87%1016,71,6 km/h (1 Bft) W-NW4,8 km/h (1 Bft) N (00:00)
Aulendorf570 m00:35-9,1-9,1 (00:31)-8,8 (00:00)0,0 l/m²86%1014,90,0 km/h (0 Bft) S-SW0,0 km/h (0 Bft) S-SW (00:00)
Bad Krozingen233 m00:35-3,6-3,8 (08:50)-3,5 (15:35)0,0 l/m²94%1015,30,0 km/h (0 Bft) S-SW6,6 km/h (2 Bft) W-NW (13:25)
Bad Saulgau595 m00:35-8,7-8,7 (00:30)-8,5 (15:15)0,0 l/m²90%1014,20,0 km/h (0 Bft) W-NW12,9 km/h (3 Bft) W (07:00)
Bad Saulgau-Lampertsweiler627 m00:35-8,2-8,2 (00:25)-8,0 (00:00)0,0 l/m²89%1017,70,0 km/h (0 Bft) O-SO0,0 km/h (0 Bft) O-SO (00:00)
Bad Schussenried572 m00:35-8,2-8,2 (00:20)-8,1 (00:00)0,0 l/m²90%1013,50,0 km/h (0 Bft) SW0,0 km/h (0 Bft) SW (00:00)
Bergatreute615 m00:35-9,4-9,9 (00:05)-9,4 (00:25)0,0 l/m²94%1015,60,0 km/h (0 Bft) NO3,2 km/h (1 Bft) N (00:15)
Biberach (Riss), Boehringer533 m00:30-8,5-8,5 (00:30)-8,4 (00:20)0,0 l/m²93%1013,64,3 km/h (1 Bft) SW7,9 km/h (2 Bft) SW (00:10)
Biberach (Riss), Realschule553 m00:35-9,7-9,8 (00:00)-9,7 (00:25)0,0 l/m²93%1016,70,0 km/h (0 Bft) O-SO0,0 km/h (0 Bft) N (00:00)
Bodnegg-Rotheidlen677 m00:35-8,5-8,8 (00:00)-8,5 (00:35)0,0 l/m²94%1015,60,0 km/h (0 Bft) W-NW0,0 km/h (0 Bft) W-NW (00:00)
Burgrieden523 m00:35-9,0-9,0 (00:35)-8,6 (00:00)0,0 l/m²87%1015,30,0 km/h (0 Bft) S0,0 km/h (0 Bft) S (00:00)
Burgrieden-Hochstetten510 m00:35-8,9-9,0 (00:00)-8,9 (01:00)0,0 l/m²92%1015,74,8 km/h (1 Bft) SO14,5 km/h (3 Bft) SO (08:15)
Ebersbach579 m00:35-9,3-9,3 (00:00)-9,2 (00:10)0,0 l/m²93%1016,30,0 km/h (0 Bft) O-NO0,0 km/h (0 Bft) O (00:00)
Ebersbach-Boos605 m00:35-9,7-9,7 (00:05)-9,6 (00:00)0,0 l/m²94%1016,10,0 km/h (0 Bft) O-SO0,0 km/h (0 Bft) S (00:00)
Ebersbach-Menzenweiler661 m00:35-7,2-7,3 (00:25)-7,1 (00:00)0,0 l/m²96%1015,94,8 km/h (1 Bft) O-NO6,4 km/h (2 Bft) O-NO (00:00)
Erlenmoos645 m00:35-10,2-10,2 (00:25)-9,9 (00:00)0,0 l/m²84%1015,70,0 km/h (0 Bft) SO0,0 km/h (0 Bft) W (00:00)
Ertingen569 m00:40-8,0-8,1 (00:00)-8,0 (00:10)0,0 l/m²92%1015,20,0 km/h (0 Bft) O-SO0,0 km/h (0 Bft) O-SO (00:00)
Friedrichshafen405 m00:35-5,8-5,8 (00:15)-5,7 (15:25)0,0 l/m²89%1015,64,8 km/h (1 Bft) N-NO11,3 km/h (2 Bft) N-NO (01:00)
Günzburg443 m00:35-7,8-7,8 (00:30)-7,4 (00:00)0,0 l/m²90%1013,00,0 km/h (0 Bft) W-SW3,2 km/h (1 Bft) W-SW (00:00)
Höchsten802 m00:35-5,7-5,9 (00:00)-5,7 (00:30)0,0 l/m²93%1013,40,0 km/h (0 Bft) SO0,0 km/h (0 Bft) N (00:00)
Horgenzell618 m00:350,0-5,1 (00:00)0,0 (00:05)0,0 l/m²0%1013,30,0 km/h (0 Bft) N8,0 km/h (2 Bft) O-NO (00:00)
Hoßkirch632 m00:35-9,1-9,3 (00:05)-9,1 (00:20)0,0 l/m²92%1014,60,0 km/h (0 Bft) SW0,0 km/h (0 Bft) SW (00:00)
Isny, Am Dreifingerbach695 m00:35-10,3-10,3 (00:35)-10,2 (00:25)0,0 l/m²90%1015,60,0 km/h (0 Bft) O4,8 km/h (1 Bft) O (00:15)
Isny, Weidachweg706 m00:35-10,2-10,8 (00:05)-10,2 (00:35)0,0 l/m²89%1017,24,8 km/h (1 Bft) SO4,8 km/h (1 Bft) O-SO (00:30)
Kappel-Grafenhausen163 m00:30-3,6-3,6 (08:20)-3,4 (14:45)0,0 l/m²91%1013,20,0 km/h (0 Bft) N6,4 km/h (2 Bft) N-NO (10:25)
Kirchberg an der Iller584 m00:35-8,4-8,4 (00:30)-8,1 (01:00)0,0 l/m²88%1005,20,0 km/h (0 Bft) NO8,0 km/h (2 Bft) S-SW (01:55)
Kißlegg-Staibshof709 m00:35-7,8-7,8 (00:05)-7,7 (00:00)0,0 l/m²95%1015,50,0 km/h (0 Bft) N-NO0,0 km/h (0 Bft) N-NO (00:00)
Kressbronn398 m00:38-5,7-5,8 (00:38)-5,4 (00:00)0,0 l/m²86%1014,30,0 km/h (0 Bft) NO0,0 km/h (0 Bft) NO (00:00)
Kreuzthal-Steinberg-Alpe930 m00:20-4,0-4,9 (00:00)-3,9 (00:20)0,0 l/m²94%1015,02,2 km/h (1 Bft) NW15,8 km/h (3 Bft) W-NW (00:10)
Kreuzthal-Steinberggipfel1040 m00:30-3,5-3,9 (00:10)-3,3 (00:30)-80%1015,014,4 km/h (3 Bft) SW26,3 km/h (4 Bft) W (00:20)
Kristberg im Montafon (AT)1425 m00:35-8,2-8,3 (00:00)-8,2 (00:10)0,0 l/m²68%1015,18,0 km/h (2 Bft) N9,7 km/h (2 Bft) N (00:00)
Laupheim500 m00:35-8,2-8,3 (00:15)-8,1 (00:35)0,0 l/m²90%1014,90,0 km/h (0 Bft) SW0,0 km/h (0 Bft) SW (00:00)
Lindau-Insel420 m00:35-5,7-5,7 (08:30)-4,9 (14:45)0,0 l/m²85%1014,78,0 km/h (2 Bft) N-NO11,3 km/h (2 Bft) W (13:55)
Lindau-Stadt412 m00:35-6,4-6,4 (07:45)-6,3 (11:50)0,0 l/m²87%1015,03,2 km/h (1 Bft) N-NO9,7 km/h (2 Bft) N (01:10)
Maierhöfen im Allgäu733 m00:40-14,4-14,8 (00:00)-14,4 (00:20)0,0 l/m²89%1016,90,0 km/h (0 Bft) SW1,6 km/h (1 Bft) SW (00:15)
Maselheim-Sulmingen548 m00:35-9,9-10,1 (00:05)-9,9 (14:15)0,0 l/m²92%1017,08,0 km/h (2 Bft) SO12,9 km/h (3 Bft) SO (08:40)
Mietingen-Baltringen528 m00:35-9,5-9,5 (00:25)-9,3 (00:00)0,0 l/m²87%1017,51,6 km/h (1 Bft) W3,2 km/h (1 Bft) W (00:20)
Mindelheim-Apfeltrach620 m00:36-14,4-14,4 (00:36)-14,1 (00:00)0,0 l/m²88%1017,04,8 km/h (1 Bft) S4,8 km/h (1 Bft) S (00:01)
Neresheim552 m00:00-8,8-8,8 (00:00)-8,8 (00:00)0,0 l/m²94%1012,20,0 km/h (0 Bft) S0,0 km/h (0 Bft) S (00:00)
Neukirch570 m00:35-8,3-8,3 (00:05)-8,2 (13:00)0,0 l/m²92%1015,84,8 km/h (1 Bft) NO9,7 km/h (2 Bft) W-NW (11:50)
Ochsenhausen, Birkenstraße613 m00:35-11,6-11,6 (00:20)-11,4 (14:15)0,0 l/m²84%1016,33,2 km/h (1 Bft) O11,3 km/h (2 Bft) O-NO (08:05)
Ochsenhausen, Unt. Wiesen575 m00:35-11,4-11,4 (00:30)-11,2 (00:00)0,0 l/m²89%1017,28,0 km/h (2 Bft) S8,0 km/h (2 Bft) S-SO (00:25)
Ostrach619 m00:35-8,8-8,9 (23:45)-8,8 (14:40)0,0 l/m²92%1014,00,0 km/h (0 Bft) S-SO12,9 km/h (3 Bft) N (07:10)
Ravensburg428 m00:35-6,7-6,9 (00:15)-6,7 (00:35)0,0 l/m²90%1014,89,7 km/h (2 Bft) N-NW9,7 km/h (2 Bft) N (00:35)
Ravensburg-Wernsreute511 m00:35-7,0-7,1 (22:45)-7,0 (15:25)0,0 l/m²91%1017,58,0 km/h (2 Bft) N19,3 km/h (3 Bft) N-NO (01:05)
Reichenbach an der Fils343 m00:35-6,7-6,7 (00:25)-6,5 (00:00)0,0 l/m²87%1017,04,8 km/h (1 Bft) O17,7 km/h (3 Bft) O-NO (00:25)
Reinstetten559 m00:35-11,3-11,3 (00:35)-11,0 (00:00)0,0 l/m²90%1016,30,0 km/h (0 Bft) S-SW0,0 km/h (0 Bft) S-SW (00:00)
Riedlingen530 m00:35-6,7-6,9 (00:00)-6,7 (00:25)0,0 l/m²93%1015,40,0 km/h (0 Bft) O-NO0,0 km/h (0 Bft) O-NO (00:00)
Schemmerhofen520 m00:35-9,4-9,5 (00:35)-9,2 (00:00)0,0 l/m²92%1015,30,0 km/h (0 Bft) SW0,0 km/h (0 Bft) SW (00:00)
Silbertal im Montafon (AT)884 m00:35-7,9-7,9 (00:15)-7,8 (00:00)0,0 l/m²89%1017,50,0 km/h (0 Bft) SO0,0 km/h (0 Bft) SO (00:00)
Tettnang466 m00:35-6,2-6,2 (00:25)-6,0 (00:00)0,0 l/m²88%1013,90,0 km/h (0 Bft) NO3,2 km/h (1 Bft) NO (00:00)
Tuttlingen662 m00:35-5,5-5,9 (00:05)-5,5 (00:30)0,0 l/m²90%1015,31,6 km/h (1 Bft) O-SO3,2 km/h (1 Bft) O-SO (00:00)
Ummendorf547 m00:35-11,0-11,0 (00:35)-10,2 (00:00)0,0 l/m²89%1016,70,0 km/h (0 Bft) O-SO3,2 km/h (1 Bft) O-SO (00:05)
Ummendorf-Fischbach558 m00:35-11,7-11,7 (00:05)-11,4 (00:00)0,0 l/m²89%1017,24,8 km/h (1 Bft) S4,8 km/h (1 Bft) S-SW (00:30)
Waldburg707 m00:35-8,5-8,6 (00:25)-8,3 (00:00)0,0 l/m²93%1015,10,0 km/h (0 Bft) N0,0 km/h (0 Bft) N (00:00)
Waltenhofen im Allgäu720 m00:35-13,3-13,8 (00:00)-13,2 (00:25)0,0 l/m²90%1016,30,0 km/h (0 Bft) S-SW0,0 km/h (0 Bft) S-SW (00:00)
Weingarten500 m00:35-8,8-8,8 (00:35)-8,6 (00:00)0,0 l/m²89%1015,33,2 km/h (1 Bft) O4,8 km/h (1 Bft) O (00:10)
Winterlingen785 m00:15-7,3-7,3 (00:15)-7,1 (00:00)0,0 l/m²95%1013,52,9 km/h (1 Bft) W-SW4,3 km/h (1 Bft) W (00:05)

niederschlagsdatenbank | info | login - erfassung

Sollten Sie Interesse haben, an der Niederschlagsdatenbank teilzunehmen, finden Sie > hier < weitere Informationen.
Datum: . . Kalender
Anmerkung:0,0 = nicht messbarer Niederschlag
 -  = kein Niederschlag
 k  = kumulierter Niederschlag

< 10.01.201912.01.2019 >


Niederschlagswerte vom 11.01.2019    -    derzeit 103 Stationen

Die Niederschlagswerte des gewählten Tages lassen sich durch Klicken auf das Datum sortieren.
Die Angaben sind in l/m².

Station08.01.09.01.10.01.11.01.12.01.13.01.14.01.Bemerkung 11.01.
Aichstetten-Nestbaum-------
Albbruck 13,02,80,5-22,538,54,8
Bewölkt mit kurzen Aufhellungen -1°C Abends leichter Schneefall. [weiterlesen...]
Schnee
Schneehöhe: Reste
Allmendingen11,35,5-4,312,523,53,5
Schnee
Amstetten-Reutti14,67,60,66,010,831,02,0
Schnee
Schneehöhe: 28 cm
Aulendorf2,98,56,07,58,012,03,2
...wieder "gekrönter" Messbecher...
Schnee Schneegriesel
Schneehöhe: 24 cm
Aulendorf-Blönried3,310,02,85,06,012,02,5
Schneeregen
Schneehöhe: 23 cm
Aulendorf-Zollenreute---4,52,012,5-
Schnee
Schneehöhe: 17 cm
Bad Buchau6,07,05,56,09,012,02,0
Bad Saulgau Walserweg5,06,02,04,56,011,52,0
Schnee
Schneehöhe: 22 cm
Bad Saulgau-Hochberg-------
Bad Schussenried Konradstraße3,210,13,24,37,712,41,8
Nieselregen Schnee Schneegriesel
Schneehöhe: 27 cm
Bad Schussenried Lortzingstrasse4,08,05,03,58,013,53,0
Schnee
Bad Schussenried Klosterstraße5,07,03,05,010,513,02,0
Schnee
Bad Schussenried Theodor-Storm-Strasse3,810,04,44,510,012,82,2
Schnee
Bad Schussenried-Hopferbach4,07,53,07,09,013,52,0
Schnee
Bad Schussenried-Schwaigfurt3,08,52,56,011,014,51,2
Bad Waldsee-Haisterkirch3,515,65,110,99,017,31,0
-9/-1°C, nach kalter klarer Nacht Frostabschwächung, zur Nacht Schne [weiterlesen...]
Schneeregen Schnee
Schneehöhe: 38 cm
Bad Wurzach-Dietmanns-------
Bad Wurzach-Seibranz3,011,57,76,55,517,02,0
Nieselregen
Schneehöhe: 56 cm
Baienfurt6,016,016,016,012,016,02,0
Schnee
Schneehöhe: 22cm
Balzheim6,07,05,02,010,016,01,5
Schnee
Schneehöhe: 20 cm
Berg-Kleintobel2,98,511,04,98,214,82,1
Regen
Schneehöhe: 26 cm
Biberach Amriswilstrasse5,38,05,04,07,514,71,5
Schnee
Schneehöhe: 20 cm
Biberach Strölinweg30,07,5---32,01,5
Biberach Erlenweg-------
Schneehöhe: 18 cm
Biberach Neue Heimat 5-------
Biberach Mittelbergstraße 95,08,04,04,010,014,52,0
Schnee
Schneehöhe: 19 cm
Biberach-Bergerhausen9,07,02,04,09,015,51,5
Bierstetten4,210,03,54,36,4--
Schnee
Blaubeuren-Pappelau---21,0 k19,030,0-
Summe war eingefrohren
Schneehöhe: 18 cm
Bühlertal10,02,03,03,014,07,0-
Regen Schnee
Schneehöhe: 3 cm
Dettingen a. d. Iller-------
Dornstadt-Tomerdingen7,58,60,74,612,522,51,6
Dürnau-9,03,54,55,510,02,0
Schnee
Eberhardzell Lilienweg2,411,46,96,29,714,01,2
Schneehöhe: 32 cm
Ebersbach-Roßwälden2,17,20,72,19,224,00,7
Schneehöhe: 4 cm
Ehingen Rosenstraße8,54,00,33,015,422,03,0
Schnee
Schneehöhe: 3 cm
Ehingen Zanderstraße6,85,42,5----
Schneehöhe: 8 cm
Ehingen Schlaufenbühl10,08,5-3,610,330,72,7
Schnee
Schneehöhe: 9 cm
Ehingen Schillerstraße8,43,0-3,013,019,92,0
Schnee
Schneehöhe: 4 cm Rest
Ehingen-Herbertshofen-------
Eislingen7,57,52,13,913,433,61,3
Schnee
Schneehöhe: 7 cm
Erbach-Bach7,52,51,02,511,016,02,7
Schnee
Erlenmoos5,110,96,95,212,918,23,1
Schnee
Schneehöhe: 36 cm
Füramoos2,1-0,00,00,011,75,5
Schneehöhe: 50 cm
Gutenzell6,0--6,0 k12,014,02,0
Schneehöhe: 26cm
Gutenzell-Hürbel6,06,53,03,510,014,0-
Schnee
Herbertingen Drosselweg7,58,53,52,57,511,52,5
Ein farbenprächtiger Sonnenaufgang eröffnete den Freitag. Danach sch [weiterlesen...]
Schnee
Schneehöhe: 16cm
Herbertingen Hirschstrasse7,06,03,02,06,010,01,0
Schnee
Schneehöhe: 15,5
Hochdorf-Schweinhausen-21,5-12,9 k8,616,72,3
Hohentengen-Bremen5,55,03,02,06,013,02,0
Schneehöhe: 10,0
Horgenzell-Ringgenweiler4,04,34,24,59,717,82,9
Schneeregen Schnee
Schneehöhe: 28 cm
Hüttisheim5,57,03,03,013,015,02,0
Schnee
Schneehöhe: 8 cm
Illerkirchberg9,04,01,84,714,919,31,1
Schnee
Schneehöhe: 7 cm
Inzigkofen7,03,20,02,05,812,23,0
Schnee
Schneehöhe: 10 cm
Isny5,812,05,02,411,433,43,2
Schnee
Schneehöhe: 78 cm
Kirchberg7,28,06,04,48,014,02,2
6 cm Neuschnee
Schnee
Schneehöhe: 28 cm
Kreuzthal-Steinberg-Alpe9,122,08,312,123,144,02,1
Schnee
Schneehöhe: 112 cm
Langenau8,54,02,03,010,520,04,5
Schnee
Schneehöhe: 5cm
Langenenslingen4,34,60,61,88,412,62,2
Schneeregen Schnee Schneegriesel
Schneehöhe: 8 cm
Leutkirch Unterer Auenweg 252,811,59,05,213,822,01,5
Schnee
Leutkirch Nachtigallenweg 284,510,011,06,015,025,02,0
Schnee
Schneehöhe: 50cm
Leutkirch-Adrazhofen6,512,07,05,031,028,03,0
Schneehöhe: 65 cm
Mietingen Seerosenweg 10-------
Mietingen-Walpertshofen-------
Mittelbiberach-Reute5,26,65,44,58,814,41,8
Schneeregen Schnee
Schneehöhe: 20 cm
Moosburg-15,05,61,75,014,51,5
Vormittags kurzfristig Sonnenschein. Am Abend wieder einsetzender Schn [weiterlesen...]
Schnee
Schneehöhe: 22 cm
Münsingen-Rietheim11,418,22,85,211,826,86,0
Schnee
Schneehöhe: 45 cm
Neresheim11,46,51,54,75,414,66,1
Schnee
Schneehöhe: 16 cm
Oberdischingen-------
Ochsenhausen1,810,45,11,22,311,92,8
Schnee
Schneehöhe: 26 cm
Öpfingen7,82,51,13,28,819,02,0
Schnee
Schneehöhe: 6cm
Ostrach Uhlandweg---14,0 k6,010,52,5
Schnee
Pfaffenhofen-Kadeltshofen6,07,05,04,09,011,02,0
Schnee
Schneehöhe: 10 cm
Pfullendorf Am Schweizersbild ------1,0
Rangendingen3,0-3,0-6,0-6,0
Schneehöhe: 3 cm
Ravensburg Bleicherstraße4,48,05,97,110,912,02,6
Ravensburg-Schmalegg5,04,56,55,010,019,51,5
Schneehöhe: 26 cm
Ravensburg-Wernsreute9,01,81,62,27,823,02,0
Schnee
Schneehöhe: 8,0
Ravensburg-Weststadt8,81,55,58,010,521,02,0
Schneeregen
Schneehöhe: 18 cm
Riedhausen4,03,63,42,84,811,42,6
Temp. -6,8°C / -1,1°C, Windböen SW 22,5 km/h
Schnee
Schneehöhe: 10-15
Riedlingen-Neufra-------
Schelklingen-Gundershofen15,012,0-7,022,025,05,0
Temp. zw. -5,9°C und +0,7°C. Morgens klar, dann Eintrübung. Mittags [weiterlesen...]
Schneehöhe: 30 cm
Schemmerberg5,012,05,03,510,524,02,0
Schwörstadt7,4-0,21,012,236,23,2
Schnee
Schneehöhe: 2 cm
Sigmaringendorf5,12,1-2,45,112,22,7
Schnee
Tuttlingen-Möhringen Eßlinger Straße4,25,00,00,43,217,6-
Schnee
Schneehöhe: 12 cm
Ulm    neu  ------30,0
Ummendorf Tulpenweg6,011,03,07,811,519,02,0
Schnee
Schneehöhe: 21 cm
Ummendorf Friedrich-Schiller-Str.-------
Uttenweiler-Ahlen-12,22,83,88,212,02,0
Schnee
Vöhringen (Schwarzwald)1,53,0-3,011,016,0-
Waldburg10,013,57,58,510,519,54,5
Schneehöhe: 55 cm
Wangen-Atzenberg-------
Schneehöhe: Schneedecke
Wangen-Bergerhöhe9,111,58,47,817,031,93,8
Schnee
Schneehöhe: 67 cm
Warthausen An der Schloßhalde -------
Warthausen Schwabenwiesen 6,4------
Warthausen-Barabein5,5--5,011,014,02,0
Regen
Schneehöhe: 5 cm
Weingarten Laurastraße4,08,511,08,59,015,02,0
+ 0,3 ° C um 9.00 Uhr, leichter Schneefall, Strassenglätte
Schnee
Schneehöhe: 19,0 cm
Weingarten Hoyerstraße-------
Weingarten Marienstraße6,510,05,08,09,515,01,5
Schnee
Schneehöhe: 14,00
Wolfegg-Veesers-------
Wolpertswende10,30,00,00,00,04,90,0
Schnee
Schneehöhe: 24 cm

Stillgelegte Niederschlagsstationen    -    derzeit 46 Stationen

StationLetzte Meldung08.01.09.01.10.01.11.01.12.01.13.01.14.01.Bemerkung 11.01.
Kressbronn10.03.2010-------
Eberhardzell Schillerstraße05.07.2010-------
Günzburg31.12.2010-------
Tettnang-Ramsbach26.03.2011-------
Kisslegg02.05.2011-------
Weingarten Bischof-Sproll-Straße30.06.2011-------
Bad Saulgau Willi-Burth-Straße19.09.2011-------
Bergatreute13.02.2012-------
Pfullendorf Ringstraße 18.03.2012-------
Leutkirch-Ottmannshofen27.07.2012-------
Bad Schussenried-Steinhausen26.09.2012-------
Bad Wurzach-Haidgau07.10.2012-------
Wilhelmsdorf Riedhauser Straße 28.10.2012-------
Stuttgart-Rohr07.11.2012-------
Stuttgart-Bad Cannstatt03.02.2013-------
Bad Saulgau Eichendorffweg28.03.2013-------
Seltmans09.04.2013-------
Aulendorf-Rugetsweiler 25.07.2013-------
Ostrach Heiligenberger Straße19.08.2013-------
Wilhelmsdorf Seefeld20.08.2013-------
Burgrieden-Rot18.09.2013-------
Burgrieden28.10.2013-------
Bad Waldsee-Steinach10.11.2013-------
Krauchenwies-Hausen23.11.2013-------
Bad Saulgau Seewattenstraße 12815.01.2014-------
Mössingen-Bästenhardt21.07.2014-------
Allmannsweiler02.09.2014-------
Bad Wurzach-Ziegelbach07.11.2014-------
Bad Waldsee-Michelwinnanden31.12.2014-------
Tuttlingen-Möhringen Belchenstraße01.01.2015-------
Bad Saulgau-Lampertsweiler18.02.2015-------
Bad Waldsee-Osterhofen06.03.2015-------
Vogt22.05.2015-------
Griesingen06.10.2015-------
Gammertingen16.01.2016-------
Leutkirch-Rotis08.05.2016-------
Ehingen Am Elzengraben17.06.2016-------
Talheim21.08.2016-------
Leutkirch-Wuchzenhofen19.09.2016-------
Wurmlingen14.10.2016-------
Ravensburg Olgastraße30.10.2016-------
Ingoldingen-Grodt19.11.2016-------
Betzenweiler05.01.2017-------
Stuttgart-Möhringen23.04.2017-------
Tannheim22.10.2017-------
Ummendorf Bergstraße23.10.2017-------
Mietingen Hangweg 1530.12.2017-------
Hoßkirch05.01.2018-------
Die Niederschlagswerte des gewählten Tages lassen sich durch Klicken auf das Datum sortieren.
Die Angaben sind in l/m².

Wetterbeobachtungen Legende:

  • Regen
  • Nieselregen
  • Schneeregen
  • Schnee
  • Graupel
  • Eiskörner
  • Hagel
  • Bodennebel
  • Gewitter
  • Nebelnässe
  • Schneegriesel

Grafische Darstellung der Tagesniederschläge vom 11.01.2019

< 10.01.201912.01.2019 >Monats- und Jahresniederschlag


 
wetterstationen
wetterstationen
- derzeit 73 Stationen
niederschlagsdatenbank
wetterstationen
- kartographische Darstellung
niederschlagsdatenbank
niederschlagsstationen
- derzeit 103 Stationen
niederschlagsdatenbank
niederschlagsstationen
- kartographische Darstellung
 
 
Sa. 7.30 Uhr - So. 7.30 Uhr (MEZ)
1.Füramoos0,0 l/m²
2.Ulm0,0 l/m²
 
  treffpunkt & service
--- Anzeigen --------------------------------
zugriffe:
insgesamt: 40.647.404
aktueller monat: 320.485
heute: 219
momentan online: 30
 
 
monatshöchstwert: 653.625
vorheriger monat: 400.931
gestern: 13.178
tageshöchstwert: 45.129
 
wetterwarte süd
 
konradstraße 3
info@wetterwarte-sued.com
roland roth
 
88427 bad schussenried